Date,TemperatureHighF,TemperatureAvgF,TemperatureLowF,DewpointHighF,DewpointAvgF,DewpointLowF,HumidityHigh,HumidityAvg,HumidityLow,PressureMaxIn,PressureMinIn,WindSpeedMaxMPH,WindSpeedAvgMPH,GustSpeedMaxMPH,PrecipitationSumIn
2013-1-1,48,37,29,34,30,27,96,78,52,30.27,30.21,3,0,4,0.00
2013-1-2,53,38,30,35,29,24,91,71,37,30.27,30.16,1,0,4,0.00
2013-1-3,55,39,31,36,33,29,93,79,46,30.27,30.18,0,0,1,0.00
2013-1-4,55,41,33,38,32,26,90,72,40,30.30,30.20,0,0,3,0.00
2013-1-5,52,42,35,39,35,31,90,79,43,30.26,30.08,0,0,5,0.00
2013-1-6,46,40,35,41,38,34,97,92,77,30.16,30.08,4,0,4,0.04
2013-1-7,52,42,35,41,36,31,94,82,55,30.23,30.13,2,0,5,0.00
2013-1-8,55,42,34,45,40,34,98,90,69,30.23,30.14,0,0,5,0.00
2013-1-9,50,42,34,42,39,33,97,89,65,30.18,29.87,10,0,10,0.60
2013-1-10,39,31,27,33,30,26,98,93,73,30.15,29.97,2,0,8,0.01
2013-1-11,41,30,24,31,25,-100,97,86,55,30.24,30.15,1,-6,6,0.00
2013-1-12,41,32,22,24,20,13,89,65,35,30.24,30.15,7,0,7,0.00
2013-1-13,41,32,21,22,14,4,91,51,23,30.27,30.18,8,1,8,0.00
2013-1-14,43,30,26,13,10,6,55,44,25,30.40,30.23,1,0,5,0.00
2013-1-15,47,34,27,32,26,22,89,74,49,30.51,30.40,1,0,4,0.00
2013-1-16,33,32,32,29,27,25,90,83,72,30.46,30.43,0,0,0,0.00
2013-1-17,62,45,34,35,27,18,74,52,27,30.30,30.19,0,0,4,0.00
2013-1-18,65,47,38,34,27,21,69,48,20,30.25,30.16,1,0,5,0.00
2013-1-19,65,50,38,37,28,20,65,45,23,30.27,30.17,2,0,2,0.00
2013-1-20,65,47,39,36,31,24,80,56,27,30.24,30.12,0,0,4,0.00
2013-1-21,64,48,37,35,30,23,81,52,25,30.19,30.12,1,0,5,0.00
2013-1-22,67,50,38,33,27,19,67,45,18,30.16,30.03,0,0,5,0.00
2013-1-23,62,51,46,46,34,22,97,58,26,30.08,29.98,2,0,4,0.09
2013-1-24,57,52,47,50,48,45,96,88,74,30.16,30.04,0,0,3,0.01
2013-1-25,58,52,50,54,50,-100,98,93,81,30.16,30.00,2,-6,8,0.06
2013-1-26,52,46,39,49,44,37,97,91,77,30.00,29.88,6,0,6,0.00
2013-1-27,46,40,35,38,36,34,98,87,67,30.11,29.97,7,1,7,0.17
2013-1-28,49,38,29,35,31,27,95,77,53,30.26,30.13,3,0,10,0.00
2013-1-29,53,43,33,39,35,30,92,74,50,30.33,30.25,5,0,8,0.00
2013-1-30,57,47,40,43,39,35,89,76,57,30.33,30.25,4,0,5,0.00
2013-1-31,62,49,37,45,40,35,94,74,43,30.30,30.19,4,0,4,0.00